Location: Al Kha???rah
(24.2075°N, 32.8791°E)
Time: 13:24:30
(UTC+00:00)

Cosmos 2333 Rocket - Pass Details

Date: 18 July 2025
Orbit: 842 x 860 km, 70.8° (Epoch: 16 April)

Event Time Altitude Azimuth Distance (km) Brightness Sun altitude
Exits shadow 23:09:49 21° 26° (NNE) 1,809 4.4 -41.4°
Drops below altitude 10° 23:11:37 10° 23° (NNE) 2,473 5.3 -41.2°
Sets 23:14:04 0° 22° (NNE) 3,407 6.2 -41.0°
